Simultaneous Nadir Overpasses (SNOs) Predictions

Prediction of SNOs between NPP and TERRA Satellite Orbit:

Table of predicted SNOs for the next 14.0 days since TLE Epoch: 4/7/2012
Index Date (NPP) Time (NPP) Lat,Lon (NPP) SZA (NPP ) Date (TERRA) Time (TERRA) Lat,Lon (TERRA) SZA (TERRA ) Distance(km) Time Diff (sec)
1 04/08/2012 02:55:26 68.35, 134.53 60.93 04/08/2012 02:56:27 68.32, 134.49 60.90 2.81 61
2 04/08/2012 03:46:07 -68.22, -57.99 119.22 04/08/2012 03:45:57 -68.22, -58.00 119.22 0.61 10
3 04/08/2012 04:36:42 67.60, 110.09 60.14 04/08/2012 04:35:32 67.66, 109.00 60.22 46.72 70
4 04/10/2012 19:12:19 68.32,-109.67 59.91 04/10/2012 19:12:59 68.32,-109.65 59.90 0.70 40
5 04/10/2012 20:03:00 -68.19, 57.81 120.24 04/10/2012 20:02:29 -68.21, 57.86 120.22 2.91 31
6 04/13/2012 10:38:45 -69.28,-162.50 120.08 04/13/2012 10:39:52 -69.16,-160.38 120.23 84.39 67
7 04/13/2012 11:29:13 68.29, 6.14 58.90 04/13/2012 11:29:33 68.27, 6.15 58.88 1.92 20
8 04/13/2012 12:19:54 -68.16, 173.62 121.25 04/13/2012 12:19:03 -68.17, 173.67 121.24 2.40 51
9 04/16/2012 02:55:26 -68.55, -45.74 121.79 04/16/2012 02:56:38 -68.47, -45.39 121.87 16.41 72
10 04/16/2012 03:46:07 68.25, 121.95 57.90 04/16/2012 03:46:07 68.25, 121.98 57.89 1.48 0
11 04/16/2012 04:36:48 -68.12, -70.56 122.24 04/16/2012 04:35:38 -68.09, -70.56 122.27 3.29 70
12 04/18/2012 19:12:17 -68.35, 70.29 122.93 04/18/2012 19:13:14 -68.36, 70.33 122.93 2.06 57
13 04/18/2012 20:03:01 68.21,-122.23
